| time (UTC) | temp C | wind direction | speed KPH | gust KPH | rain 1hr cm | rain 24hr cm | rain mn cm | humidity % | barometer mb |
| 20260503184551 | 35 | 126 | 8.0 | 20.9 | 0.00 | 0.00 | 0.00 | 12 | 1005.2 |
| 20260503183031 | 34 | 130 | 14.5 | 22.5 | 0.00 | 0.00 | 0.00 | 12 | 1005.7 |
| 20260503181526 | 33 | 86 | 8.0 | 20.9 | 0.00 | 0.00 | 0.00 | 13 | 1005.8 |
| 20260503180004 | 33 | 132 | 3.2 | 14.5 | 0.00 | 0.00 | 0.00 | 12 | 1006.1 |
| 20260503174602 | 33 | 125 | 6.4 | 12.9 | 0.00 | 0.00 | 0.00 | 12 | 1006.2 |
| 20260503173039 | 32 | 111 | 8.0 | 12.9 | 0.00 | 0.00 | 0.00 | 12 | 1006.1 |
| 20260503171544 | 32 | 128 | 4.8 | 14.5 | 0.00 | 0.00 | 0.00 | 13 | 1006.2 |
| 20260503081538 | 29 | 283 | 9.7 | 19.3 | 0.00 | 0.00 | 0.00 | 11 | 1005.6 |
| 20260503071502 | 29 | 317 | 11.3 | 20.9 | 0.00 | 0.00 | 0.00 | 12 | 1005.9 |
| 20260503060130 | 30 | 279 | 14.5 | 22.5 | 0.00 | 0.00 | 0.00 | 12 | 1006.5 |
| 20260503054601 | 30 | 321 | 14.5 | 22.5 | 0.00 | 0.00 | 0.00 | 13 | 1006.4 |
| 20260503053057 | 30 | 317 | 14.5 | 25.7 | 0.00 | 0.00 | 0.00 | 13 | 1006.2 |
| 20260503051538 | 30 | 306 | 16.1 | 29.0 | 0.00 | 0.00 | 0.00 | 13 | 1006.0 |
| 20260503050041 | 30 | 296 | 16.1 | 27.4 | 0.00 | 0.00 | 0.00 | 13 | 1006.0 |
| 20260503044521 | 30 | 294 | 16.1 | 24.1 | 0.00 | 0.00 | 0.00 | 14 | 1005.9 |
| 20260503043020 | 30 | 314 | 14.5 | 27.4 | 0.00 | 0.00 | 0.00 | 14 | 1005.7 |
| 20260503041502 | 31 | 303 | 8.0 | 16.1 | 0.00 | 0.00 | 0.00 | 13 | 1005.6 |
| 20260503040121 | 31 | 290 | 9.7 | 17.7 | 0.00 | 0.00 | 0.00 | 14 | 1005.7 |
| 20260503034543 | 31 | 279 | 9.7 | 17.7 | 0.00 | 0.00 | 0.00 | 15 | 1005.4 |
| 20260503033042 | 31 | 281 | 9.7 | 19.3 | 0.00 | 0.00 | 0.00 | 16 | 1005.4 |
| 20260503031525 | 32 | 277 | 14.5 | 25.7 | 0.00 | 0.00 | 0.00 | 17 | 1005.1 |
| 20260503030024 | 32 | 298 | 3.2 | 6.4 | 0.00 | 0.00 | 0.00 | 13 | 1005.1 |
| 20260503024506 | 32 | 69 | 6.4 | 14.5 | 0.00 | 0.00 | 0.00 | 11 | 1004.7 |
| 20260503023005 | 33 | 74 | 11.3 | 17.7 | 0.00 | 0.00 | 0.00 | 10 | 1004.4 |
| 20260503021547 | 33 | 72 | 8.0 | 16.1 | 0.00 | 0.00 | 0.00 | 10 | 1004.2 |
| 20260503020045 | 33 | 69 | 12.9 | 24.1 | 0.00 | 0.00 | 0.00 | 9 | 1004.1 |
| 20260503014528 | 34 | 101 | 11.3 | 17.7 | 0.00 | 0.00 | 0.00 | 10 | 1004.1 |
| 20260503013031 | 35 | 86 | 8.0 | 17.7 | 0.00 | 0.00 | 0.00 | 9 | 1004.1 |
| 20260503011509 | 35 | 82 | 12.9 | 17.7 | 0.00 | 0.00 | 0.00 | 9 | 1004.1 |
| 20260503010009 | 35 | 95 | 11.3 | 19.3 | 0.00 | 0.00 | 0.00 | 9 | 1004.1 |
| 20260503004551 | 35 | 72 | 12.9 | 24.1 | 0.00 | 0.00 | 0.00 | 9 | 1004.2 |
| 20260503003051 | 35 | 88 | 11.3 | 22.5 | 0.00 | 0.00 | 0.00 | 9 | 1004.3 |
| 20260503001543 | 35 | 118 | 11.3 | 22.5 | 0.00 | 0.00 | 0.00 | 9 | 1004.1 |
| 20260503000032 | 36 | 111 | 9.7 | 29.0 | 0.00 | 0.00 | 0.00 | 9 | 1004.2 |
| 20260502234522 | 35 | 107 | 9.7 | 16.1 | 0.00 | 0.00 | 0.00 | 8 | 1004.4 |
| 20260502233012 | 36 | 101 | 11.3 | 24.1 | 0.00 | 0.00 | 0.00 | 8 | 1004.6 |
| 20260502231552 | 36 | 105 | 14.5 | 29.0 | 0.00 | 0.00 | 0.00 | 8 | 1004.7 |
| 20260502230051 | 36 | 67 | 14.5 | 22.5 | 0.00 | 0.00 | 0.00 | 8 | 1004.8 |
| 20260502224533 | 36 | 77 | 11.3 | 22.5 | 0.00 | 0.00 | 0.00 | 8 | 1005.1 |
| 20260502223030 | 36 | 83 | 14.5 | 20.9 | 0.00 | 0.00 | 0.00 | 8 | 1005.6 |
| 20260502221511 | 36 | 128 | 14.5 | 20.9 | 0.00 | 0.00 | 0.00 | 8 | 1005.9 |
| 20260502220009 | 35 | 111 | 8.0 | 17.7 | 0.00 | 0.00 | 0.00 | 8 | 1006.2 |
| 20260502214549 | 36 | 93 | 8.0 | 17.7 | 0.00 | 0.00 | 0.00 | 8 | 1006.4 |
| 20260502213049 | 35 | 123 | 11.3 | 27.4 | 0.00 | 0.00 | 0.00 | 8 | 1006.5 |
| 20260502211528 | 35 | 118 | 8.0 | 25.7 | 0.00 | 0.00 | 0.00 | 8 | 1006.6 |
| 20260502210027 | 36 | 124 | 9.7 | 17.7 | 0.00 | 0.00 | 0.00 | 7 | 1007.0 |
| 20260502204507 | 36 | 102 | 8.0 | 16.1 | 0.00 | 0.00 | 0.00 | 7 | 1007.3 |
| 20260502203005 | 36 | 115 | 17.7 | 24.1 | 0.00 | 0.00 | 0.00 | 7 | 1007.4 |
| 20260502201555 | 35 | 83 | 4.8 | 17.7 | 0.00 | 0.00 | 0.00 | 7 | 1007.5 |
| 20260502200053 | 35 | 57 | 11.3 | 22.5 | 0.00 | 0.00 | 0.00 | 7 | 1007.7 |
| 20260502194550 | 36 | 126 | 8.0 | 17.7 | 0.00 | 0.00 | 0.00 | 8 | 1008.1 |
| 20260502193049 | 35 | 84 | 8.0 | 16.1 | 0.00 | 0.00 | 0.00 | 7 | 1008.4 |
| 20260502191556 | 35 | 162 | 9.7 | 19.3 | 0.00 | 0.00 | 0.00 | 8 | 1008.5 |
| 20260502190050 | 35 | 100 | 3.2 | 17.7 | 0.00 | 0.00 | 0.00 | 8 | 1008.6 |